Track COSMOS 2435 (GLONASS) now! COSMOS 2435 (GLONASS) is classified as:
1 32394U 07065B 25199.23926505 .00000118 00000-0 00000-0 0 9997 2 32394 64.3216 203.1749 0024525 354.5823 5.4225 2.13115302136623